Vertical_Velocity
-0 0 -1 -1 -1 1 -0 0 -1 -2 -2 -3 -1 -2 -4 -4 -0 -2 -11 2 -1 0 3 3 2 1 1 0 1 2 -5 -0 -3 -0 -5 2 -2 6 -1 -6 -1 14 7 6 8
-1 -1 -2 -1 -1 -0 -0 0 -0 -0 0 -1 -2 -2 -3 -5 -5 -7 7 1 4 0 2 1 1 2 1 1 1 -3 -2 -5 -4 -2 -2 -1 -0 -6 -4 0 0 0 -0 0 3
-0 -2 -1 -2 -1 -0 -0 0 -0 -1 -0 -1 -0 -1 -3 -1 -5 0 2 1 3 2 -0 0 3 3 -0 1 1 0 -3 -2 -6 -1 7 -1 2 -1 -4 0 -4 -12 -3 -1 3
-1 -2 1 -0 -2 -1 -0 0 1 -1 -2 -3 -2 -1 -1 -0 -8 1 2 1 5 1 -0 2 2 0 -0 -0 0 0 -1 2 -6 -1 2 -0 1 1 -1 -3 -3 3 -1 1 3
-3 0 1 -0 -1 -1 -0 -1 1 0 -2 -3 -2 -0 -1 1 -22 5 1 2 4 4 -0 1 0 -1 -1 -0 1 1 -2 2 -0 1 1 -0 2 0 -1 4 3 7 7 -1 -7
3 -1 0 -0 -1 -2 0 -1 1 1 -1 -1 -1 -1 3 -2 -2 2 -1 1 0 3 2 -1 -2 -1 -0 -1 -1 -0 1 -1 2 3 2 -6 2 -2 5 4 -0 -1 -1 4 3
1 -2 2 1 -0 -1 1 -1 2 1 -1 -0 0 -2 -1 -39 1 2 5 -0 2 2 1 4 1 6 1 -1 2 -1 -1 -2 1 2 1 -7 -8 -0 2 7 -0 7 6 2 7
-0 1 -0 -0 -2 1 0 -0 1 -1 -0 1 1 1 -19 3 -1 -7 -1 -2 -0 0 1 5 8 5 0 3 -3 -0 -5 -2 1 0 1 -4 -0 6 6 1 6 10 6 7 7
-4 0 3 -3 1 1 0 1 0 2 0 1 -0 1 -20 0 -3 0 1 -5 1 1 2 6 5 3 3 -3 -4 -4 -2 -0 2 1 -1 -7 1 7 9 -3 3 2 2 2 4
0 -4 2 -0 3 -1 3 -1 -0 3 0 0 1 1 -0 0 -1 7 -1 5 2 6 3 5 2 -1 -2 -3 -4 -2 -0 -1 1 1 -6 0 5 4 8 -6 2 2 3 -1 -1
1 1 1 2 -3 1 3 -1 1 1 1 -7 -1 -1 2 3 3 7 5 2 6 3 -1 2 -5 -3 -3 -2 -2 -0 1 0 1 1 -11 2 1 5 4 -2 0 2 0 -2 -1
1 -1 3 3 -1 2 2 0 4 4 -7 -2 -3 -9 3 5 -7 5 5 0 -0 -2 -0 -7 -3 -4 -0 0 0 1 0 1 4 2 -16 -0 6 3 0 1 -2 -3 0 2 0
1 2 -1 -1 -2 1 3 2 3 4 3 -10 -1 -5 -4 2 -4 -6 3 2 -3 1 -0 -3 -8 -1 0 -0 2 -1 -1 -0 -6 4 4 -7 0 0 7 -0 2 4 4 4 0
1 2 -0 2 0 3 4 2 -3 3 -4 -12 1 -7 -5 -1 -3 -1 0 -6 1 -6 -1 -2 -4 0 1 -0 -3 1 -2 -3 -1 -2 -4 -6 -2 1 1 2 1 4 2 2 -1
1 1 -1 2 3 1 3 6 0 -4 -4 -9 1 11 2 -4 3 -0 0 4 -2 -2 -7 -16 0 0 1 -7 -3 -12 -4 -6 -2 -1 -5 -1 -9 -4 -0 2 2 3 3 5 7
1 1 0 -1 -1 7 4 2 2 -14 -15 -4 1 -0 -1 2 -2 5 -0 9 2 -1 -0 -4 1 -1 -6 -0 -1 -1 -1 -2 -1 -2 -5 0 -8 -4 -2 -5 3 3 1 1 1
1 1 -2 -0 -1 5 4 2 -12 -4 -11 -2 -2 -0 -1 1 -0 -0 -0 2 -5 -4 -2 -3 -3 -1 -2 0 -3 -4 -5 -4 -6 -7 -3 -0 -4 2 -1 1 -6 -3 -0 2 1
2 -2 3 -6 4 4 8 -5 1 -7 -2 -1 -1 0 -4 -3 -3 1 1 1 1 -2 -1 -2 -11 -1 -1 -5 -8 1 -6 -7 -4 -2 -3 -2 -0 -4 2 2 1 3 1 3 0
-2 -2 -8 -2 5 5 8 -0 -10 -2 -2 -2 -2 -2 1 0 -5 -2 -1 -2 -3 -3 -6 -1 -3 -1 1 -0 -9 -0 -2 -4 -5 -1 -4 -1 1 -4 0 2 3 1 3 0 2
-2 -0 -19 13 2 5 -3 -4 -2 -0 1 1 -3 -4 -1 -1 -1 -3 -2 -3 -1 -2 -2 -3 -4 -0 1 -5 -2 -7 -3 -6 -4 -3 -0 -1 -1 -2 2 2 2 3 1 0 0
-0 -0 4 6 9 6 -4 -5 -1 -5 7 1 -1 -1 -2 -3 -3 1 -3 1 -0 1 -1 -2 -8 -7 -8 -2 -2 -6 -2 -3 -8 -4 -5 -2 -6 -0 -4 -3 -2 -1 0 -2 -1
-1 2 3 10 -1 0 -1 -3 1 -2 2 -0 -0 -1 -3 -0 -0 -1 -2 -2 0 -0 -1 0 -3 -1 1 1 1 -1 -0 -2 -7 -1 0 -3 -8 1 -1 -2 -3 -0 0 1 5
-2 -1 8 11 -4 -0 -2 -1 1 -1 -1 -1 -0 -2 -1 -2 -8 -1 0 1 0 -1 -3 -3 -2 -2 -5 -12 -6 -3 -1 -0 -1 -3 -0 -5 -6 1 2 2 4 -3 -0 2 3
-0 4 5 6 2 -1 -0 -2 -1 -1 -1 0 -1 -2 -2 -1 -1 -2 1 0 1 -0 1 -6 -1 -7 -10 -11 -4 -2 -1 -0 -3 -3 -2 -2 1 1 2 0 2 1 4 3 2
0 -3 -2 -1 -1 0 2 -1 0 -1 -0 1 -2 -2 -4 -2 -0 0 0 1 -1 0 -0 -7 -3 -2 1 1 -2 -0 -0 0 -2 0 -3 -1 -2 -2 -2 -3 -3 1 2 2 1
-1 5 1 1 0 4 -1 -3 -2 0 2 -2 -1 0 -1 -5 -8 -3 -4 -2 -4 -2 -1 -1 -2 -1 -0 0 -2 -1 0 -0 -0 2 -1 -1 1 -2 2 2 2 1 1 1 -0
4 -6 2 -2 1 1 -4 -3 -4 -2 0 0 -2 -3 -2 -0 -1 1 1 -2 -4 -4 -0 -2 -3 -2 1 -0 -0 -7 -1 0 0 -0 -7 -3 -6 1 3 2 3 1 0 -1 -0
Height
1531 1531 1531 1531 1529 1528 1527 1526 1525 1524 1522 1521 1520 1518 1515 1512 1511 1510 1507 1511 1512 1513 1514 1516 1517 1518 1520 1521 1523 1523 1533 1540 1528 1525 1517 1512 1512 1513 1518 1522 1524 1524 1523 1522 1525
1527 1527 1528 1527 1527 1526 1525 1524 1523 1522 1520 1518 1517 1516 1513 1511 1509 1506 1506 1506 1508 1511 1512 1514 1516 1517 1518 1519 1520 1521 1533 1525 1515 1510 1509 1507 1507 1514 1518 1522 1524 1524 1524 1524 1528
1524 1523 1524 1524 1524 1523 1522 1522 1521 1520 1517 1515 1514 1514 1512 1510 1507 1502 1502 1502 1504 1508 1511 1513 1515 1516 1517 1517 1517 1517 1519 1512 1507 1504 1503 1507 1508 1510 1513 1523 1519 1519 1522 1527 1533
1521 1520 1520 1520 1520 1520 1520 1519 1518 1517 1516 1514 1512 1511 1510 1510 1512 1501 1501 1501 1503 1506 1509 1511 1513 1515 1515 1516 1514 1517 1508 1507 1502 1499 1499 1501 1506 1510 1509 1511 1514 1517 1522 1528 1534
1518 1517 1517 1516 1516 1517 1517 1517 1516 1515 1514 1513 1511 1509 1509 1507 1500 1501 1500 1502 1504 1504 1506 1508 1510 1512 1513 1512 1512 1513 1507 1503 1501 1495 1494 1498 1500 1503 1511 1510 1511 1514 1522 1528 1535
1515 1514 1513 1513 1512 1513 1513 1513 1513 1512 1511 1510 1509 1508 1508 1506 1497 1497 1498 1500 1502 1502 1503 1505 1506 1508 1509 1509 1510 1506 1504 1501 1500 1496 1496 1498 1505 1503 1518 1517 1518 1524 1531 1534 1536
1511 1511 1510 1509 1509 1509 1510 1510 1510 1509 1508 1508 1507 1505 1503 1493 1495 1493 1494 1497 1499 1500 1501 1503 1506 1507 1507 1506 1505 1504 1505 1500 1500 1500 1502 1502 1511 1515 1518 1520 1524 1531 1538 1545 1546
1509 1508 1507 1506 1506 1506 1506 1506 1506 1506 1505 1505 1504 1503 1495 1489 1488 1490 1493 1495 1498 1499 1500 1502 1504 1506 1506 1505 1504 1504 1508 1516 1506 1505 1505 1504 1523 1525 1526 1527 1535 1538 1538 1544 1548
1507 1505 1504 1503 1503 1503 1503 1503 1503 1503 1503 1502 1502 1502 1490 1485 1484 1488 1490 1493 1496 1497 1498 1501 1504 1504 1503 1509 1516 1516 1523 1516 1513 1511 1506 1512 1528 1529 1533 1535 1541 1544 1544 1548 1551
1505 1503 1501 1501 1500 1500 1500 1500 1500 1500 1500 1500 1500 1503 1487 1484 1483 1484 1488 1492 1494 1495 1497 1498 1500 1503 1508 1514 1534 1522 1518 1515 1519 1525 1518 1523 1536 1538 1542 1539 1546 1547 1551 1553 1555
1503 1501 1499 1498 1497 1498 1499 1499 1502 1500 1496 1491 1491 1486 1482 1482 1482 1482 1484 1489 1491 1494 1498 1496 1504 1511 1507 1508 1509 1509 1513 1519 1525 1523 1532 1540 1542 1544 1549 1549 1552 1554 1555 1556 1559
1500 1498 1496 1495 1495 1496 1497 1497 1498 1499 1493 1485 1484 1484 1481 1483 1484 1479 1482 1487 1489 1496 1495 1502 1506 1497 1499 1502 1505 1507 1512 1526 1529 1527 1533 1545 1550 1551 1552 1557 1557 1554 1556 1558 1561
1498 1496 1493 1493 1494 1494 1495 1496 1496 1496 1494 1480 1476 1477 1477 1481 1480 1477 1480 1482 1486 1494 1497 1505 1498 1493 1498 1501 1504 1503 1510 1518 1525 1531 1537 1535 1553 1557 1560 1559 1560 1560 1561 1563 1563
1494 1493 1493 1492 1495 1492 1493 1495 1495 1496 1501 1480 1472 1470 1474 1478 1477 1474 1477 1481 1484 1492 1496 1497 1490 1492 1496 1500 1500 1509 1496 1504 1519 1527 1543 1529 1572 1558 1560 1562 1563 1564 1565 1567 1569
1492 1491 1491 1491 1490 1492 1493 1494 1495 1497 1513 1467 1466 1467 1467 1474 1471 1469 1475 1479 1484 1487 1492 1495 1489 1491 1494 1490 1491 1497 1495 1502 1508 1519 1527 1542 1559 1559 1559 1563 1562 1562 1564 1565 1567
1489 1489 1488 1489 1488 1491 1491 1493 1495 1507 1506 1467 1460 1463 1467 1470 1470 1469 1473 1478 1480 1485 1485 1487 1484 1486 1486 1481 1481 1484 1494 1506 1514 1523 1542 1538 1549 1559 1558 1554 1561 1565 1568 1567 1570
1486 1486 1485 1486 1487 1488 1489 1493 1505 1508 1463 1465 1461 1459 1464 1471 1471 1469 1474 1480 1488 1499 1498 1488 1485 1479 1479 1485 1484 1490 1506 1533 1532 1546 1552 1536 1544 1551 1546 1548 1554 1559 1565 1568 1570
1482 1482 1481 1481 1484 1486 1488 1493 1501 1473 1465 1453 1455 1460 1469 1468 1469 1470 1474 1483 1480 1483 1497 1503 1504 1481 1475 1480 1489 1490 1501 1530 1535 1549 1549 1540 1556 1555 1551 1551 1555 1559 1564 1568 1570
1478 1478 1474 1477 1482 1484 1487 1494 1480 1466 1452 1453 1457 1465 1468 1466 1466 1468 1474 1480 1478 1478 1492 1497 1492 1476 1476 1475 1480 1491 1503 1499 1527 1536 1547 1556 1557 1554 1555 1556 1558 1562 1565 1568 1570
1476 1475 1469 1475 1479 1482 1484 1481 1468 1456 1451 1449 1461 1460 1470 1467 1467 1470 1476 1473 1473 1473 1474 1482 1495 1481 1478 1476 1481 1485 1490 1508 1522 1540 1551 1551 1553 1554 1555 1558 1561 1564 1565 1568 1570
1475 1474 1466 1470 1477 1479 1482 1476 1462 1451 1451 1449 1449 1458 1457 1463 1466 1471 1476 1471 1469 1471 1472 1477 1489 1491 1484 1491 1494 1496 1502 1508 1516 1529 1547 1556 1551 1539 1544 1549 1556 1560 1563 1565 1568
1472 1472 1463 1467 1473 1472 1473 1466 1457 1451 1445 1444 1443 1445 1451 1456 1466 1469 1474 1470 1468 1468 1476 1477 1492 1507 1498 1491 1488 1491 1500 1507 1527 1529 1543 1547 1553 1541 1541 1547 1553 1558 1563 1566 1570
1468 1465 1464 1465 1471 1470 1464 1460 1456 1452 1447 1444 1442 1441 1444 1456 1470 1470 1470 1470 1467 1469 1475 1476 1497 1517 1508 1503 1494 1503 1503 1503 1513 1525 1537 1546 1555 1545 1546 1551 1555 1558 1563 1566 1570
1464 1458 1463 1464 1462 1461 1461 1458 1456 1449 1448 1445 1442 1440 1446 1456 1459 1470 1471 1470 1470 1470 1472 1474 1494 1502 1520 1508 1504 1511 1509 1506 1512 1531 1541 1542 1551 1551 1552 1553 1557 1560 1563 1567 1571
1458 1449 1450 1458 1457 1458 1458 1452 1452 1450 1444 1441 1439 1439 1446 1460 1464 1469 1470 1471 1472 1473 1474 1480 1501 1498 1503 1502 1504 1510 1513 1512 1516 1524 1527 1539 1544 1548 1550 1553 1557 1561 1565 1569 1573
1452 1448 1448 1449 1451 1457 1455 1449 1448 1446 1446 1442 1441 1439 1442 1452 1453 1467 1465 1470 1474 1474 1478 1483 1505 1501 1514 1510 1510 1521 1521 1519 1523 1528 1534 1540 1547 1545 1551 1555 1559 1563 1566 1570 1574
1448 1445 1450 1443 1446 1451 1445 1444 1443 1442 1444 1441 1440 1442 1445 1446 1446 1453 1457 1463 1468 1475 1482 1487 1501 1513 1519 1514 1513 1527 1518 1519 1524 1526 1531 1543 1542 1545 1553 1556 1561 1564 1567 1570 1574